Temp
15 15 15 15 15 15 14 14 13 13 13 12 12 12 12 12 12 11 11 12 12 12 12 12 12 12 12 12 12 11 10 10 9 10 10 9 9 9 9 8 8 8
15 15 15 14 14 14 13 13 12 12 12 12 11 11 11 11 11 11 12 12 12 12 12 12 12 12 12 12 12 12 12 11 11 11 11 11 11 11 10 10 10 9
14 14 14 14 14 13 12 11 11 11 11 11 11 11 11 11 12 12 12 12 12 12 12 13 13 13 12 12 12 12 12 12 11 11 11 11 11 11 11 10 10 9
13 13 13 13 12 12 11 11 11 11 11 11 11 11 11 12 12 12 12 12 12 12 12 12 12 12 12 12 12 11 11 11 11 10 11 11 11 11 11 10 10 10
13 12 12 12 12 12 12 11 11 11 11 11 11 11 12 12 12 12 12 12 12 12 12 12 12 12 12 12 11 11 11 11 11 11 11 11 11 10 10 10 10 10
11 11 11 12 12 12 11 11 11 11 11 12 12 12 12 12 12 12 12 12 12 12 12 12 12 12 12 12 12 12 11 11 11 11 11 10 10 10 10 10 10 9
11 11 11 11 11 11 11 11 11 11 11 12 12 12 12 12 12 12 12 12 12 12 12 12 12 12 12 11 11 11 11 11 11 10 10 10 10 9 9 9 9 9
10 10 10 10 10 10 11 11 11 11 11 12 12 12 12 12 12 12 12 12 12 12 12 12 11 11 11 11 11 11 10 10 10 10 10 9 9 9 9 8 8 8
9 9 9 10 10 10 11 11 11 11 11 12 12 12 12 12 12 12 12 12 12 12 11 11 11 11 10 10 10 10 10 9 9 9 9 9 9 8 8 8 8 8
9 9 10 10 10 11 11 11 11 11 11 12 12 11 11 11 11 11 11 11 11 11 11 10 10 10 10 10 9 9 9 9 9 8 8 8 8 8 7 7 7 7
9 9 10 11 11 11 11 11 11 11 11 11 11 11 11 11 11 11 11 11 11 10 10 10 9 9 9 9 9 8 8 8 8 8 8 7 7 7 7 7 6 6
9 10 11 11 11 11 11 11 11 11 11 11 11 11 11 11 11 11 10 10 10 10 9 9 9 8 8 8 8 8 7 7 7 7 7 7 7 7 6 6 6 5
10 10 11 11 11 11 11 11 11 11 11 11 11 11 11 10 10 10 10 10 9 9 9 8 8 7 7 7 7 7 7 7 7 6 6 7 6 6 6 5 5 4
10 11 11 11 11 11 11 11 11 11 10 10 10 10 10 10 10 10 9 9 9 9 8 8 7 7 7 6 6 6 6 6 6 6 6 6 6 6 6 5 4 4
10 10 11 11 11 10 10 10 10 10 10 10 10 10 10 10 9 9 9 9 8 8 8 7 7 6 6 6 6 6 6 6 6 6 5 5 5 5 5 4 4 3
10 10 10 10 10 10 10 10 10 9 9 10 10 9 9 9 9 9 8 8 8 8 7 7 6 6 5 5 5 5 5 5 5 5 5 4 3 3 3 3 3 2
10 10 10 10 10 9 9 9 9 9 9 9 9 9 9 8 8 8 8 8 8 7 7 6 6 6 6 5 5 5 4 4 4 4 3 3 2 2 2 2 2 1
9 9 9 9 9 9 9 9 9 9 9 9 9 8 8 8 8 8 8 7 7 7 6 6 6 6 6 5 5 5 4 4 3 3 2 2 2 1 1 0 0 -0
9 9 9 9 9 9 9 9 8 9 8 8 8 8 8 7 7 7 7 7 7 6 6 6 6 5 5 5 4 4 4 3 3 3 2 2 2 1 0 -1 -2 -2
8 9 8 8 8 8 8 8 8 8 8 8 8 7 7 7 7 6 6 6 6 6 5 5 5 4 4 4 4 3 3 3 3 3 2 2 1 0 -1 -2 -3 -4
8 8 8 8 8 8 8 8 8 8 8 7 7 7 7 6 6 6 5 5 5 5 5 4 4 4 3 3 2 2 2 2 2 2 2 1 0 -1 -3 -4 -4 -5
8 8 8 8 8 8 7 8 7 7 7 7 7 6 6 6 5 5 5 5 4 4 4 3 3 3 2 2 1 1 1 2 2 2 2 0 -2 -3 -5 -5 -5 -6
8 8 8 7 7 7 7 7 7 7 7 6 6 6 5 5 5 4 4 4 4 3 3 3 2 2 2 1 1 1 1 1 1 0 0 -1 -3 -5 -6 -6 -6 -7
7 7 7 7 7 7 7 7 7 6 6 6 5 5 5 5 4 4 3 3 2 2 2 1 1 1 1 1 0 -0 -1 -2 -2 -2 -3 -4 -4 -5 -6 -7 -7 -7
7 7 7 7 7 7 7 6 6 6 5 5 5 5 4 4 4 3 2 1 1 1 0 -0 -0 0 0 -0 -1 -2 -4 -5 -5 -5 -6 -6 -7 -6 -5 -7 -8 -8
6 6 6 7 7 6 6 6 6 5 5 5 4 4 3 3 3 2 2 1 0 -0 -1 -1 -1 -1 -1 -2 -4 -5 -6 -6 -7 -7 -7 -8 -8 -8 -7 -7 -8 -8
Height
840 841 843 844 846 847 848 849 850 851 851 852 853 853 854 855 855 855 856 855 855 855 854 854 854 854 854 854 854 854 854 854 854 853 853 853 853 852 852 851 851 851
838 840 842 843 844 846 847 847 849 849 850 851 852 853 853 854 855 855 855 855 854 854 854 854 854 854 854 854 854 854 854 854 853 853 853 852 852 852 851 851 850 850
838 839 841 842 843 844 845 846 848 849 850 851 851 852 853 853 854 854 855 855 854 854 854 853 853 853 853 853 853 854 853 853 853 853 852 852 852 851 851 850 850 849
837 838 840 841 842 844 845 846 847 848 849 850 851 852 852 853 854 854 854 855 854 854 854 853 853 853 853 853 853 853 853 853 852 852 852 851 851 851 850 850 849 848
836 837 839 841 842 843 845 845 847 848 848 850 850 851 852 853 853 854 854 855 855 855 854 854 853 853 853 853 853 853 853 852 852 852 852 851 851 850 850 849 848 848
835 837 838 840 842 843 844 845 846 847 848 849 850 851 852 852 853 854 854 855 855 855 855 854 854 853 853 853 852 852 852 852 852 852 851 851 850 850 849 848 848 847
835 837 838 840 842 843 844 845 846 848 848 849 850 851 852 852 853 853 854 854 854 855 855 855 855 854 853 853 852 852 852 852 852 852 851 850 850 849 848 847 846 845
835 837 839 840 842 843 845 846 847 848 849 850 850 851 852 852 852 853 853 854 854 854 855 855 855 854 854 853 852 852 852 852 851 851 850 849 848 847 846 845 844 843
835 837 839 840 842 844 845 846 847 848 850 850 851 851 852 853 853 853 854 854 854 854 854 855 855 854 854 853 852 851 851 851 850 849 849 848 847 846 845 844 843 842
835 837 839 841 842 844 845 846 847 848 850 850 851 851 852 852 853 854 854 854 855 855 855 855 855 855 854 852 851 851 850 850 849 848 848 847 846 845 844 843 842 841
835 837 839 840 842 843 845 846 847 848 849 850 851 851 852 852 853 854 854 855 855 855 856 856 855 855 854 852 851 850 849 849 848 847 847 846 845 844 843 842 841 840
835 837 839 840 842 843 845 846 847 848 849 850 850 851 851 852 853 854 854 855 855 856 856 856 856 855 853 852 850 849 849 848 847 847 845 845 844 843 842 841 840 839
835 837 838 840 841 843 845 846 847 848 849 849 850 851 851 852 853 854 854 855 855 855 856 856 856 855 853 851 850 848 848 847 846 845 844 843 842 841 840 839 838 837
835 837 838 840 841 843 844 845 846 847 848 849 850 850 851 852 853 854 854 855 855 855 855 855 855 854 852 850 848 847 846 845 844 843 842 841 840 839 837 836 835 834
834 836 837 839 841 842 844 845 846 847 848 848 849 850 851 852 853 854 854 854 854 854 854 854 854 853 851 848 847 845 844 843 842 841 840 838 837 836 834 833 832 831
833 835 837 838 840 842 843 844 845 846 847 848 848 849 850 852 852 853 854 853 854 854 853 853 853 851 850 847 846 844 843 841 840 839 838 836 834 832 831 829 828 828
832 834 836 838 840 841 842 843 844 845 846 847 848 849 850 851 852 852 853 852 853 853 852 852 851 850 848 846 844 843 841 839 838 837 835 834 832 830 828 826 824 824
831 833 835 837 839 840 841 842 843 844 845 846 847 848 849 850 851 851 851 852 852 852 851 850 849 848 846 844 842 841 839 837 836 834 833 831 830 828 826 824 821 820
831 832 834 836 838 839 840 841 843 844 845 846 847 848 849 849 850 850 851 851 851 851 850 849 848 846 844 842 841 839 837 835 833 832 831 829 827 826 824 822 820 817
831 832 833 835 836 838 839 840 842 843 844 845 846 847 848 848 849 850 850 850 850 850 849 847 846 844 842 840 839 837 835 833 832 830 828 827 825 824 822 820 819 817
830 831 832 834 835 837 838 840 841 842 843 845 846 847 847 848 848 849 849 848 848 848 847 846 844 842 841 839 837 835 833 831 829 827 826 825 823 822 821 819 818 816
829 830 831 833 834 836 837 839 840 841 843 844 845 846 846 847 847 848 847 847 846 846 845 844 842 840 839 837 835 833 831 829 827 825 823 822 820 819 818 818 817 815
827 829 830 832 833 835 837 838 839 841 842 843 844 845 845 846 846 846 846 845 845 844 843 842 841 839 838 836 834 831 829 826 824 822 820 818 817 817 816 815 815 813
826 828 829 831 833 834 836 837 838 840 841 842 842 843 844 844 844 844 844 844 843 843 842 841 840 839 836 834 832 830 827 825 823 821 818 816 814 813 812 812 812 811
825 827 828 830 832 833 835 836 837 838 839 840 841 842 842 842 843 843 843 843 842 842 841 841 839 837 835 833 831 829 827 825 822 819 817 814 812 809 807 807 808 808
824 826 828 829 831 832 834 835 836 837 838 839 839 840 840 840 841 842 842 842 842 841 840 839 837 835 833 831 830 828 826 824 821 819 816 813 811 809 805 803 802 802
Wind_Speed
19 18 19 18 17 16 15 15 13 11 9 8 8 8 8 7 6 6 5 4 3 2 1 1 1 2 3 4 5 6 6 5 5 5 5 5 5 6 7 8 8 8
19 19 19 19 18 16 14 13 12 11 10 9 9 8 8 7 6 5 4 3 3 4 5 5 6 7 8 8 8 9 8 8 8 8 8 8 8 8 9 10 10 10
20 19 19 19 18 17 14 12 12 11 11 10 9 9 8 7 6 5 6 6 7 8 8 8 9 9 10 10 10 10 10 11 11 12 11 12 12 13 13 14 14 14
21 19 19 18 16 15 14 13 13 12 11 11 10 9 8 7 7 8 9 9 9 10 10 10 10 11 11 11 11 11 12 12 13 13 13 14 15 15 16 16 16 16
19 18 17 17 16 15 14 14 14 13 12 12 11 10 10 10 10 11 11 11 11 11 11 11 11 11 12 11 11 11 12 12 13 13 13 14 15 15 16 16 16 17
18 17 17 17 16 16 15 15 14 13 13 13 13 13 13 13 13 13 13 12 12 11 11 11 11 11 12 11 11 11 11 12 12 13 13 14 15 15 15 15 15 16
18 18 17 17 17 16 16 16 15 15 15 16 16 16 15 15 14 14 13 12 11 11 10 11 10 10 11 10 10 11 11 12 12 13 13 14 15 15 16 16 17 18
19 19 18 17 18 17 17 18 18 17 17 17 18 17 16 15 14 13 12 11 10 10 10 10 10 10 10 10 11 11 11 12 13 13 14 15 15 16 17 18 19 20
21 20 19 19 20 20 21 21 20 19 18 17 18 17 15 14 13 13 12 11 10 10 10 9 9 10 10 10 11 11 12 12 13 13 14 15 16 17 18 19 20 21
23 22 22 23 23 23 23 22 21 20 18 17 17 16 15 14 13 12 11 10 10 10 10 9 9 9 10 10 11 12 12 12 13 13 14 15 16 17 18 19 20 21
25 25 25 25 25 24 23 22 21 19 18 17 16 15 15 14 13 12 11 10 10 10 9 9 9 9 10 10 11 11 12 12 13 13 14 15 16 17 18 19 20 22
28 27 27 26 25 24 23 21 20 19 18 17 15 15 15 14 13 12 11 10 10 10 9 9 9 9 10 10 11 11 11 12 12 13 14 15 17 18 19 20 21 22
28 28 27 26 25 23 22 20 19 18 17 16 15 15 14 13 13 12 11 10 10 9 9 9 9 9 10 10 10 11 11 12 13 15 16 17 19 20 21 21 23 23
28 27 26 25 23 22 21 20 19 17 17 16 15 14 14 13 12 11 11 10 10 9 10 9 9 9 9 10 11 12 13 14 15 17 19 20 21 22 23 24 25 25
28 27 25 24 23 22 21 20 19 18 17 16 15 14 13 13 12 11 11 10 10 9 9 8 8 9 10 11 13 14 15 16 18 19 20 22 24 24 26 26 27 28
28 26 25 23 22 22 21 20 19 18 17 15 14 14 13 12 11 11 10 9 9 9 8 8 8 10 11 12 14 15 17 18 19 21 22 23 25 26 27 29 29 29
27 26 24 23 23 22 21 20 19 17 16 15 14 14 13 12 11 10 10 9 8 8 8 8 9 11 12 14 16 17 18 20 20 22 23 23 25 26 28 30 31 30
27 26 25 24 23 22 21 19 18 17 16 15 14 13 12 11 10 9 9 8 7 8 8 9 11 13 14 16 18 18 19 21 22 22 23 24 25 26 28 29 31 32
27 26 26 24 23 22 20 19 17 16 16 15 14 13 11 10 9 8 7 7 7 8 9 11 12 14 16 17 18 20 20 21 23 24 24 26 26 27 28 28 29 31
27 26 26 24 22 21 19 18 17 16 15 14 13 12 11 9 8 7 7 7 8 9 10 12 13 15 16 17 18 20 21 22 24 25 25 26 27 27 27 27 27 28
27 26 25 23 22 20 19 18 16 15 15 13 12 11 9 8 8 7 7 8 9 10 11 12 14 15 16 17 19 20 22 23 24 26 27 27 27 26 25 25 26 26
26 25 24 23 22 20 19 17 16 15 14 12 11 10 9 8 7 8 8 9 10 11 12 12 14 15 16 18 19 21 22 24 25 27 28 28 28 26 25 24 24 25
26 25 24 22 21 20 19 17 15 14 13 11 10 9 8 8 7 8 9 9 10 11 12 13 14 15 16 18 20 21 23 25 27 28 29 30 29 27 26 25 24 25
25 24 23 22 21 19 18 17 15 13 12 10 9 7 7 7 7 8 9 10 10 11 12 13 14 15 16 18 20 21 23 24 26 28 29 30 31 31 29 27 26 26
25 23 22 21 20 19 17 16 14 12 10 9 7 7 7 7 7 8 9 10 10 11 12 13 14 15 17 18 20 20 21 22 25 28 29 30 31 34 36 33 30 28
24 23 22 21 20 18 17 15 13 11 9 8 7 6 7 7 7 8 8 9 10 11 12 13 15 16 17 18 19 19 19 21 24 26 28 30 31 33 36 37 36 35
Wind_Direction
195 195 193 192 193 196 200 206 209 207 201 196 195 197 201 207 216 229 245 257 262 261 239 200 139 70 53 48 51 53 49 42 32 17 5 357 351 349 343 337 335 332
188 188 190 190 191 194 200 204 201 196 195 194 193 196 201 209 216 221 224 208 178 152 129 113 102 92 84 79 75 71 65 59 55 46 41 40 32 26 21 12 9 6
182 184 187 191 194 196 194 191 189 191 192 188 188 193 196 199 193 178 166 153 140 127 113 103 97 91 85 80 74 68 62 57 52 46 42 43 40 36 32 25 20 17
185 188 191 193 193 190 185 182 180 181 182 178 176 177 175 170 159 148 139 129 122 114 106 102 96 89 84 78 72 66 61 55 51 45 40 39 37 34 31 27 22 18
186 185 184 183 179 177 178 178 174 171 170 167 161 155 151 146 139 132 125 119 115 110 103 98 91 85 80 74 69 66 61 56 50 44 39 37 34 32 29 25 21 17
173 171 171 172 173 175 175 171 168 164 159 152 147 142 138 136 130 125 120 115 109 103 95 90 84 79 75 69 64 59 55 51 46 41 37 33 30 26 22 18 14 11
165 167 169 172 173 173 170 162 158 154 148 144 140 136 133 131 126 119 114 109 103 96 89 84 80 76 72 66 60 55 51 46 40 36 31 28 24 18 13 9 4 3
164 166 167 168 166 164 159 151 148 144 141 140 136 131 129 125 120 114 108 104 99 94 87 82 76 72 69 64 59 53 47 42 36 30 25 19 17 12 7 3 358 356
161 161 161 160 155 152 148 143 140 138 137 137 132 126 124 118 112 108 105 102 98 92 86 80 73 67 64 58 53 48 42 37 30 24 20 14 10 7 2 358 355 352
156 154 154 152 148 144 142 139 137 136 135 132 127 123 119 114 109 107 104 100 96 90 82 76 68 62 57 51 47 42 36 32 25 19 15 9 5 2 358 354 351 348
151 150 149 147 144 141 139 137 135 134 132 128 125 122 118 114 111 108 103 97 89 82 75 68 61 56 51 47 43 38 31 24 20 14 9 5 1 357 354 350 346 344
148 148 147 144 142 140 138 136 134 133 130 127 124 122 119 116 113 107 99 92 84 77 71 63 56 50 44 41 37 31 26 18 12 8 2 359 356 352 350 346 342 341
147 147 145 143 141 139 138 136 135 134 131 127 125 124 120 116 111 104 97 91 85 80 72 62 53 45 37 35 30 22 17 10 4 1 357 354 352 348 346 344 340 339
146 145 144 142 141 140 139 138 137 136 132 129 127 124 118 113 108 103 99 93 87 80 72 61 49 39 29 23 19 12 9 5 360 357 352 349 348 345 343 343 341 339
146 145 144 143 143 143 142 141 140 137 133 131 128 122 117 114 111 107 102 96 88 78 68 57 42 30 22 15 10 5 1 360 356 353 351 347 345 344 343 343 342 340
147 146 145 145 146 146 145 143 140 137 134 131 127 123 119 116 112 108 101 94 85 74 60 48 34 23 18 11 6 2 358 356 354 351 350 347 344 344 343 343 342 341
149 148 148 148 149 148 146 143 141 138 135 131 127 124 121 116 111 105 95 85 73 61 45 33 22 14 10 4 1 0 356 355 354 350 349 349 346 345 344 343 342 342
151 151 150 151 150 148 147 144 142 140 135 132 129 125 121 115 108 98 88 78 63 49 31 19 13 5 2 360 357 356 355 353 352 350 349 349 349 347 345 344 343 342
154 154 153 152 150 148 147 145 144 141 137 134 130 125 121 113 103 90 80 70 55 40 23 12 8 3 360 358 355 353 354 352 349 349 350 349 349 348 346 346 345 342
157 157 154 152 150 149 148 147 145 142 137 134 130 126 120 111 99 85 71 58 43 33 21 9 5 3 0 358 356 354 352 350 349 349 350 349 348 348 347 347 346 344
159 158 155 151 150 150 149 148 145 142 138 135 130 125 117 107 95 77 58 44 34 29 21 11 5 4 3 359 357 355 351 349 349 348 348 348 348 348 349 348 347 343
160 159 156 152 152 151 151 149 146 143 140 134 128 119 108 96 81 66 51 36 27 24 21 15 6 3 3 2 359 356 351 349 349 347 347 347 348 348 348 347 345 341
162 160 157 154 154 154 152 150 147 144 139 133 126 116 101 87 67 54 46 33 24 21 19 16 9 3 3 3 1 357 353 351 349 348 347 346 346 346 344 344 343 342
161 161 159 156 156 156 153 151 148 144 139 131 123 110 94 80 62 48 42 35 28 22 19 17 11 7 6 4 3 0 357 353 351 349 348 346 344 343 342 342 343 343
161 162 161 159 158 156 154 152 149 144 137 127 117 102 84 72 60 51 44 39 33 24 21 20 15 12 10 7 7 6 0 355 353 352 350 347 344 341 340 340 341 341
162 163 161 160 160 157 154 152 149 142 134 125 113 96 80 65 54 49 43 38 36 30 25 22 17 15 15 13 11 9 4 358 357 356 351 345 342 340 338 338 338 338